Walhalla, ND

11:36 PM CDT on March 22, 2017 (GMT -0500)
Walhalla

Weather History for K96D - October, 2012

Change the Weather History Date:

Sunday, October 21, 2012

  Actual Average (KGAF) Record (KGAF)
Temperature  
Mean Temperature 40 °F -  
Max Temperature 48 °F 54 °F 77 °F (1953)
Min Temperature 32 °F 31 °F 12 °F (1987)
Degree Days  
Heating Degree Days 25    
Moisture  
Dew Point 38 °F    
Average Humidity 86    
Maximum Humidity 100    
Minimum Humidity 57    
Precipitation  
Precipitation 0.00 in - - ()
Sea Level Pressure  
Sea Level Pressure 29.86 in    
Wind  
Wind Speed 6 mph (NW)    
Max Wind Speed 14 mph    
Max Gust Speed 21 mph    
Visibility 10 miles    
Events      
Averages and records for this station are not official NWS values.
T = Trace of Precipitation, MM = Missing Value Source: NWS Daily Summary

Daily Weather History Graph

Daily Weather History Graph

Search for Another Location

Airport or City:

Trip Planner

Search our weather history database for the weather conditions in past years. The results will help you decide how hot, cold, wet, or windy it might be!

Date:

Astronomy

Oct. 21, 2012 Rise Set
Actual Time 8:02 AM CDT 6:29 PM CDT
Civil Twilight 7:29 AM CDT 7:01 PM CDT
Nautical Twilight 6:53 AM CDT 7:38 PM CDT
Astronomical Twilight 6:16 AM CDT 8:14 PM CDT
Moon 2:34 PM CDT (10/21) No Moon Set
Length of Visible Light 11h 31m
Length of Day
10h 27m
Waxing Crescent, 45% of the Moon is Illuminated
Oct 21
Waxing Crescent
Oct 21
First Quarter
Oct 29
Full
Nov 6
Last Quarter
Nov 13
New

Hourly Weather History & Observations

Time (CDT) Temp. Windchill Dew Point Humidity Pressure Visibility Wind Dir Wind Speed Gust Speed Precip Events Conditions
12:35 AM 44.6 °F 40.7 °F 44.6 °F 100% 29.61 in 10.0 mi SSE 6.9 mph - N/A   Partly Cloudy
12:55 AM 44.6 °F 43.1 °F 44.6 °F 100% 29.62 in 10.0 mi SSE 3.5 mph - N/A   Clear
1:15 AM 44.6 °F 41.4 °F 44.6 °F 100% 29.63 in 10.0 mi SSE 5.8 mph - N/A   Clear
1:35 AM 44.6 °F 41.4 °F 44.6 °F 100% 29.63 in 9.0 mi South 5.8 mph - N/A   Clear
2:15 AM 44.6 °F 43.1 °F 44.6 °F 100% 29.63 in 8.0 mi SE 3.5 mph - N/A   Clear
2:35 AM 44.6 °F 41.4 °F 44.6 °F 100% 29.63 in 8.0 mi SE 5.8 mph - N/A   Clear
2:55 AM 44.6 °F 42.2 °F 44.6 °F 100% 29.64 in 8.0 mi East 4.6 mph - N/A   Partly Cloudy
3:15 AM 44.6 °F 43.1 °F 44.6 °F 100% 29.64 in 9.0 mi ESE 3.5 mph - N/A   Partly Cloudy
3:35 AM 44.6 °F 40.7 °F 44.6 °F 100% 29.65 in 7.0 mi SE 6.9 mph - N/A   Scattered Clouds
3:55 AM 44.6 °F 43.1 °F 44.6 °F 100% 29.65 in 7.0 mi SSE 3.5 mph - N/A   Mostly Cloudy
4:15 AM 42.8 °F 41.1 °F 42.8 °F 100% 29.66 in 7.0 mi South 3.5 mph - N/A   Mostly Cloudy
4:35 AM 42.8 °F - 42.8 °F 100% 29.67 in 8.0 mi Calm Calm - N/A   Partly Cloudy
5:15 AM 44.6 °F 42.2 °F 44.6 °F 100% 29.68 in 10.0 mi NNW 4.6 mph - N/A   Mostly Cloudy
6:15 AM 44.6 °F - 44.6 °F 100% 29.71 in 10.0 mi Calm Calm - N/A   Overcast
6:35 AM 44.6 °F 41.4 °F 44.6 °F 100% 29.71 in 10.0 mi West 5.8 mph - N/A   Overcast
6:55 AM 48.2 °F - 46.4 °F 93% 29.71 in 10.0 mi WNW 8.1 mph - N/A   Overcast
7:15 AM 48.2 °F - 44.6 °F 87% 29.72 in 10.0 mi WNW 8.1 mph - N/A   Overcast
7:35 AM 46.4 °F 41.5 °F 42.8 °F 87% 29.72 in 10.0 mi WNW 10.4 mph - N/A   Overcast
7:55 AM 46.4 °F 41.5 °F 41.0 °F 81% 29.73 in 10.0 mi WNW 10.4 mph - N/A   Overcast
8:35 AM 44.6 °F 39.2 °F 39.2 °F 81% 29.75 in 10.0 mi WNW 10.4 mph 17.3 mph N/A   Mostly Cloudy
8:55 AM 44.6 °F 38.8 °F 39.2 °F 81% 29.77 in 10.0 mi NW 11.5 mph - N/A   Mostly Cloudy
9:35 AM 44.6 °F 40.2 °F 39.2 °F 81% 29.80 in 10.0 mi WNW 8.1 mph - N/A   Overcast
10:15 AM 42.8 °F 37.0 °F 39.2 °F 87% 29.82 in 10.0 mi NW 10.4 mph - N/A   Overcast
10:35 AM 44.6 °F 38.8 °F 39.2 °F 81% 29.84 in 10.0 mi NW 11.5 mph - N/A   Overcast
10:55 AM 44.6 °F 38.8 °F 39.2 °F 81% 29.85 in 10.0 mi NW 11.5 mph - N/A   Overcast
11:15 AM 44.6 °F 40.7 °F 39.2 °F 81% 29.86 in 10.0 mi NW 6.9 mph - N/A   Overcast
11:35 AM 44.6 °F 40.2 °F 39.2 °F 81% 29.87 in 10.0 mi NW 8.1 mph - N/A   Overcast
12:15 PM 44.6 °F 38.1 °F 39.2 °F 81% 29.89 in 10.0 mi NW 13.8 mph 19.6 mph N/A   Overcast
12:35 PM 44.6 °F 38.1 °F 37.4 °F 76% 29.91 in 10.0 mi NW 13.8 mph 20.7 mph N/A   Overcast
12:55 PM 41.0 °F 33.9 °F 37.4 °F 87% 29.91 in 10.0 mi NW 12.7 mph - N/A   Mostly Cloudy
1:15 PM 41.0 °F 35.2 °F 37.4 °F 87% 29.90 in 10.0 mi NNW 9.2 mph - N/A   Mostly Cloudy
1:35 PM 42.8 °F 36.6 °F 37.4 °F 81% 29.90 in 10.0 mi NW 11.5 mph - N/A   Scattered Clouds
1:55 PM 44.6 °F 39.7 °F 37.4 °F 76% 29.90 in 10.0 mi NW 9.2 mph 18.4 mph N/A   Partly Cloudy
2:15 PM 46.4 °F 41.5 °F 37.4 °F 71% 29.91 in 10.0 mi NNW 10.4 mph - N/A   Partly Cloudy
2:35 PM 44.6 °F 39.7 °F 35.6 °F 71% 29.91 in 10.0 mi NNW 9.2 mph - N/A   Scattered Clouds
2:55 PM 46.4 °F 41.5 °F 35.6 °F 66% 29.92 in 10.0 mi NNW 10.4 mph - N/A   Scattered Clouds
3:15 PM 46.4 °F 41.1 °F 35.6 °F 66% 29.92 in 10.0 mi NW 11.5 mph 17.3 mph N/A   Scattered Clouds
3:35 PM 46.4 °F 41.9 °F 33.8 °F 62% 29.93 in 10.0 mi NNW 9.2 mph - N/A   Partly Cloudy
3:55 PM 46.4 °F 40.7 °F 32.0 °F 57% 29.93 in 10.0 mi NNW 12.7 mph 16.1 mph N/A   Scattered Clouds
4:15 PM 46.4 °F 42.4 °F 32.0 °F 57% 29.94 in 10.0 mi NNW 8.1 mph - N/A   Clear
4:35 PM 46.4 °F 43.5 °F 33.8 °F 62% 29.94 in 10.0 mi NNW 5.8 mph - N/A   Clear
4:55 PM 46.4 °F 43.5 °F 32.0 °F 57% 29.95 in 10.0 mi NNW 5.8 mph - N/A   Clear
5:15 PM 46.4 °F 44.3 °F 33.8 °F 62% 29.95 in 10.0 mi North 4.6 mph - N/A   Clear
5:35 PM 46.4 °F 44.3 °F 33.8 °F 62% 29.95 in 10.0 mi NE 4.6 mph - N/A   Clear
5:55 PM 44.6 °F 43.1 °F 33.8 °F 66% 29.96 in 10.0 mi ENE 3.5 mph - N/A   Clear
6:15 PM 44.6 °F - 33.8 °F 66% 29.97 in 10.0 mi Calm Calm - N/A   Clear
6:35 PM 42.8 °F - 33.8 °F 70% 29.98 in 10.0 mi Calm Calm - N/A   Clear
6:55 PM 39.2 °F 37.0 °F 33.8 °F 81% 29.99 in 10.0 mi SE 3.5 mph - N/A   Clear
7:15 PM 39.2 °F 37.0 °F 35.6 °F 87% 29.99 in 10.0 mi SE 3.5 mph - N/A   Clear
7:35 PM 39.2 °F 37.0 °F 35.6 °F 87% 30.00 in 10.0 mi South 3.5 mph - N/A   Clear
7:55 PM 37.4 °F - 35.6 °F 93% 30.01 in 10.0 mi Calm Calm - N/A   Clear
8:15 PM 37.4 °F 33.8 °F 35.6 °F 93% 30.02 in 10.0 mi SW 4.6 mph - N/A   Clear
8:35 PM 35.6 °F - 33.8 °F 93% 30.03 in 10.0 mi Calm Calm - N/A   Partly Cloudy
8:55 PM 35.6 °F 32.8 °F 33.8 °F 93% 30.03 in 10.0 mi West 3.5 mph - N/A   Partly Cloudy
9:15 PM 33.8 °F - 32.0 °F 93% 30.03 in 10.0 mi Calm Calm - N/A   Clear
9:35 PM 32.0 °F 28.7 °F 32.0 °F 100% 30.04 in 10.0 mi SSW 3.5 mph - N/A   Clear
9:55 PM 33.8 °F - 33.8 °F 100% 30.05 in 10.0 mi Calm Calm - N/A   Clear
10:15 PM 32.0 °F - 32.0 °F 100% 30.05 in 10.0 mi Calm Calm - N/A   Clear
10:35 PM 32.0 °F - 32.0 °F 100% 30.05 in 10.0 mi Calm Calm - N/A   Clear
10:55 PM 32.0 °F 28.7 °F 32.0 °F 100% 30.06 in 10.0 mi West 3.5 mph - N/A   Clear
11:35 PM 32.0 °F - 32.0 °F 100% 30.07 in 10.0 mi Calm Calm - N/A   Clear
11:55 PM 32.0 °F 28.7 °F 32.0 °F 100% 30.08 in 10.0 mi West 3.5 mph - N/A   Clear